When you browse on this site, cookies collect data to enhance your experience and personalize the content and advertising you see.
Visit our Privacy Policy to learn more. By continuing to use the site, you agree to this use of cookies and data.
  • In Österreich
  • Länderverzeichnis
  • Für 7 Tage
  • Wassertemperatur
  • Satellitenkarten
  • Wetterkarte
  • News
  • Widgets
  • user-avatar
    Anmelden

    Stündliche Wetter Rohizka

    Heute, 21 Februar, Donnerstag

    Zeit Temperatur Niederschläge Wind Luftdruck Luftfeuchtigkeit
    00:00 +1°C° 0 mm 5 m/S 745 mmHg 82%
    01:00 +1°C° 0 mm 5 m/S 745 mmHg 81%
    02:00 +1°C° 0 mm 4 m/S 745 mmHg 84%
    03:00 +1°C° 0 mm 4 m/S 745 mmHg 83%
    04:00 +1°C° 0 mm 5 m/S 745 mmHg 82%
    05:00 +1°C° 0 mm 6 m/S 745 mmHg 81%
    06:00 +1°C° 0 mm 6 m/S 745 mmHg 81%
    07:00 -1°C° 0 mm 6 m/S 745 mmHg 81%
    08:00 -1°C° 0 mm 6 m/S 745 mmHg 79%
    09:00 0°C° 0 mm 7 m/S 745 mmHg 72%
    10:00 +1°C° 0 mm 8 m/S 746 mmHg 64%
    11:00 +1°C° 0 mm 9 m/S 746 mmHg 56%
    12:00 +2°C° 0 mm 8 m/S 746 mmHg 55%
    13:00 +2°C° 0 mm 8 m/S 746 mmHg 54%
    14:00 +4°C° 0 mm 8 m/S 745 mmHg 55%
    15:00 +4°C° 0 mm 8 m/S 745 mmHg 57%
    16:00 +3°C° 0 mm 7 m/S 745 mmHg 60%
    17:00 +3°C° 0 mm 6 m/S 745 mmHg 63%
    18:00 +2°C° 0 mm 6 m/S 745 mmHg 67%
    19:00 +1°C° 0 mm 5 m/S 745 mmHg 71%
    20:00 +1°C° 0 mm 4 m/S 746 mmHg 76%
    21:00 +2°C° 0 mm 3 m/S 746 mmHg 79%
    22:00 +1°C° 0 mm 3 m/S 746 mmHg 82%
    23:00 +2°C° 0 mm 2 m/S 746 mmHg 86%

    Morgen, 22 Februar, Freitag

    Zeit Temperatur Niederschläge Wind Luftdruck Luftfeuchtigkeit
    00:00 +2°C° 0.2 mm 2 m/S 745 mmHg 83%
    01:00 +2°C° 0.2 mm 2 m/S 745 mmHg 80%
    02:00 +1°C° 0.2 mm 2 m/S 745 mmHg 77%
    03:00 -1°C° 0.6 mm 3 m/S 745 mmHg 82%
    04:00 -2°C° 0.6 mm 3 m/S 745 mmHg 86%
    05:00 -4°C° 0.6 mm 4 m/S 744 mmHg 91%
    06:00 -4°C° 0.6 mm 4 m/S 745 mmHg 90%
    07:00 -5°C° 0.6 mm 5 m/S 745 mmHg 89%
    08:00 -5°C° 0.6 mm 5 m/S 745 mmHg 88%
    09:00 -6°C° 0.4 mm 6 m/S 745 mmHg 86%
    10:00 -6°C° 0.4 mm 6 m/S 746 mmHg 84%
    11:00 -6°C° 0.4 mm 6 m/S 746 mmHg 82%
    12:00 -6°C° 0.2 mm 6 m/S 747 mmHg 76%
    13:00 -7°C° 0.2 mm 7 m/S 748 mmHg 71%
    14:00 -7°C° 0.2 mm 7 m/S 749 mmHg 66%
    15:00 -8°C° 0 mm 7 m/S 749 mmHg 64%
    16:00 -8°C° 0 mm 7 m/S 749 mmHg 63%
    17:00 -9°C° 0 mm 7 m/S 750 mmHg 61%
    18:00 -9°C° 0 mm 6 m/S 750 mmHg 63%
    19:00 -10°C° 0 mm 6 m/S 751 mmHg 65%
    20:00 -10°C° 0 mm 6 m/S 751 mmHg 67%
    21:00 -10°C° 0 mm 6 m/S 752 mmHg 67%
    22:00 -10°C° 0 mm 6 m/S 752 mmHg 66%
    23:00 -10°C° 0 mm 6 m/S 752 mmHg 66%

    übermorgen, 23 Februar, Samstag

    Zeit Temperatur Niederschläge Wind Luftdruck Luftfeuchtigkeit
    00:00 -10°C° 0 mm 6 m/S 752 mmHg 67%
    01:00 -10°C° 0 mm 6 m/S 753 mmHg 69%
    02:00 -11°C° 0 mm 6 m/S 753 mmHg 70%
    03:00 -11°C° 0.1 mm 6 m/S 754 mmHg 71%
    04:00 -10°C° 0.1 mm 6 m/S 754 mmHg 73%
    05:00 -11°C° 0.1 mm 7 m/S 754 mmHg 74%
    06:00 -11°C° 0.1 mm 7 m/S 755 mmHg 75%
    07:00 -11°C° 0.1 mm 7 m/S 755 mmHg 76%
    08:00 -11°C° 0.1 mm 7 m/S 756 mmHg 77%
    09:00 -11°C° 0.1 mm 7 m/S 756 mmHg 75%
    10:00 -11°C° 0.1 mm 7 m/S 756 mmHg 73%
    11:00 -11°C° 0.1 mm 7 m/S 757 mmHg 71%
    12:00 -9°C° 0 mm 7 m/S 757 mmHg 70%
    13:00 -9°C° 0 mm 7 m/S 757 mmHg 69%
    14:00 -9°C° 0 mm 7 m/S 757 mmHg 68%
    15:00 -9°C° 0 mm 6 m/S 757 mmHg 68%
    16:00 -9°C° 0 mm 6 m/S 757 mmHg 69%
    17:00 -9°C° 0 mm 6 m/S 757 mmHg 70%
    18:00 -10°C° 0 mm 6 m/S 758 mmHg 72%
    19:00 -10°C° 0 mm 5 m/S 758 mmHg 74%
    20:00 -10°C° 0 mm 5 m/S 758 mmHg 77%
    21:00 -9°C° 0 mm 4 m/S 759 mmHg 77%
    22:00 -9°C° 0 mm 4 m/S 759 mmHg 78%
    23:00 -10°C° 0 mm 4 m/S 759 mmHg 79%

    24 Februar, Sonntag

    Zeit Temperatur Niederschläge Wind Luftdruck Luftfeuchtigkeit
    00:00 -9°C° 0 mm 3 m/S 759 mmHg 79%
    01:00 -9°C° 0 mm 3 m/S 759 mmHg 80%
    02:00 -9°C° 0 mm 3 m/S 759 mmHg 81%
    03:00 -9°C° 0 mm 3 m/S 759 mmHg 82%
    04:00 -9°C° 0 mm 3 m/S 759 mmHg 83%
    05:00 -9°C° 0 mm 3 m/S 759 mmHg 84%
    06:00 -9°C° 0 mm 3 m/S 759 mmHg 82%
    07:00 -9°C° 0 mm 3 m/S 759 mmHg 81%
    08:00 -9°C° 0 mm 3 m/S 759 mmHg 79%
    09:00 -8°C° 0 mm 3 m/S 759 mmHg 73%
    10:00 -7°C° 0 mm 3 m/S 759 mmHg 67%
    11:00 -5°C° 0 mm 2 m/S 759 mmHg 60%
    12:00 -4°C° 0 mm 2 m/S 759 mmHg 57%
    13:00 -3°C° 0 mm 2 m/S 759 mmHg 54%
    14:00 -2°C° 0 mm 2 m/S 759 mmHg 51%
    15:00 -2°C° 0 mm 2 m/S 759 mmHg 55%
    16:00 -2°C° 0 mm 2 m/S 758 mmHg 59%
    17:00 -3°C° 0 mm 2 m/S 758 mmHg 63%
    18:00 -3°C° 0 mm 2 m/S 758 mmHg 65%
    19:00 -5°C° 0 mm 3 m/S 759 mmHg 68%
    20:00 -5°C° 0 mm 3 m/S 759 mmHg 70%
    21:00 -5°C° 0 mm 3 m/S 759 mmHg 71%
    22:00 -6°C° 0 mm 3 m/S 759 mmHg 72%
    23:00 -6°C° 0 mm 3 m/S 759 mmHg 72%

    25 Februar, Montag

    Zeit Temperatur Niederschläge Wind Luftdruck Luftfeuchtigkeit
    00:00 -5°C° 0 mm 3 m/S 759 mmHg 72%
    01:00 -5°C° 0 mm 3 m/S 759 mmHg 72%
    02:00 -5°C° 0 mm 3 m/S 758 mmHg 72%
    03:00 -5°C° 0 mm 3 m/S 758 mmHg 73%
    04:00 -5°C° 0 mm 3 m/S 758 mmHg 74%
    05:00 -5°C° 0 mm 3 m/S 757 mmHg 75%
    06:00 -5°C° 0 mm 3 m/S 757 mmHg 75%
    07:00 -4°C° 0 mm 4 m/S 757 mmHg 74%
    08:00 -4°C° 0 mm 4 m/S 757 mmHg 73%
    09:00 -3°C° 0 mm 4 m/S 757 mmHg 72%
    10:00 -2°C° 0 mm 5 m/S 756 mmHg 70%
    11:00 -1°C° 0 mm 5 m/S 756 mmHg 68%
    12:00 0°C° 0 mm 5 m/S 755 mmHg 67%
    13:00 +1°C° 0 mm 5 m/S 755 mmHg 65%
    14:00 +1°C° 0 mm 5 m/S 754 mmHg 64%
    15:00 +1°C° 0 mm 5 m/S 754 mmHg 68%
    16:00 +1°C° 0 mm 4 m/S 753 mmHg 73%
    17:00 0°C° 0 mm 4 m/S 753 mmHg 77%
    18:00 0°C° 0 mm 4 m/S 753 mmHg 80%
    19:00 -1°C° 0 mm 4 m/S 753 mmHg 84%
    20:00 -1°C° 0 mm 4 m/S 753 mmHg 87%
    21:00 -2°C° 0 mm 4 m/S 752 mmHg 88%
    22:00 -2°C° 0 mm 4 m/S 752 mmHg 89%
    23:00 -2°C° 0 mm 4 m/S 752 mmHg 90%

    26 Februar, Dienstag

    Zeit Temperatur Niederschläge Wind Luftdruck Luftfeuchtigkeit
    00:00 -2°C° 0 mm 4 m/S 751 mmHg 90%
    01:00 -2°C° 0 mm 4 m/S 751 mmHg 90%
    02:00 -2°C° 0 mm 4 m/S 751 mmHg 91%
    03:00 -2°C° 0 mm 5 m/S 750 mmHg 90%
    04:00 -2°C° 0 mm 5 m/S 750 mmHg 89%
    05:00 -3°C° 0 mm 6 m/S 749 mmHg 89%
    06:00 -3°C° 0 mm 6 m/S 748 mmHg 88%
    07:00 -3°C° 0 mm 6 m/S 748 mmHg 87%
    08:00 -3°C° 0 mm 6 m/S 747 mmHg 86%
    09:00 -2°C° 0 mm 6 m/S 747 mmHg 84%
    10:00 -1°C° 0 mm 6 m/S 746 mmHg 81%
    11:00 -1°C° 0 mm 6 m/S 746 mmHg 78%
    12:00 +1°C° 0.1 mm 6 m/S 745 mmHg 79%
    13:00 +1°C° 0.1 mm 6 m/S 745 mmHg 80%
    14:00 +1°C° 0.1 mm 6 m/S 744 mmHg 80%
    15:00 +1°C° 0 mm 6 m/S 744 mmHg 81%
    16:00 +1°C° 0 mm 5 m/S 744 mmHg 83%
    17:00 +1°C° 0 mm 5 m/S 743 mmHg 84%
    18:00 0°C° 0 mm 5 m/S 743 mmHg 85%
    19:00 0°C° 0 mm 5 m/S 743 mmHg 86%
    20:00 0°C° 0 mm 5 m/S 742 mmHg 87%
    21:00 -1°C° 0.1 mm 6 m/S 741 mmHg 87%
    22:00 -1°C° 0.1 mm 7 m/S 740 mmHg 87%
    23:00 -1°C° 0.1 mm 8 m/S 739 mmHg 87%
    Mehr zeigen